Weather History for KPSX - September, 2013

Change the Weather History Date:

Tuesday, September 17, 2013

  Actual Average Record
Temperature  
Mean Temperature 82 °F -  
Max Temperature 89 °F 87 °F 94 °F (1947)
Min Temperature 75 °F 71 °F 56 °F (1981)
Cooling Degree Days 16    
Growing Degree Days 32 (Base 50)    
Moisture  
Dew Point 75 °F    
Average Humidity 80    
Maximum Humidity 94    
Minimum Humidity 63    
Precipitation  
Precipitation 0.00 in - - ()
Sea Level Pressure  
Sea Level Pressure 29.97 in    
Wind  
Wind Speed 8 mph (ENE)    
Max Wind Speed 18 mph    
Max Gust Speed 24 mph    
Visibility 9 miles    
Events      
Averages and records for this station are not official NWS values.
T = Trace of Precipitation, MM = Missing Value Source: NWS Daily Summary

Daily Weather History Graph

Daily Weather History Graph

Search for Another Location

Airport or City:

Trip Planner

Search our weather history database for the weather conditions in past years. The results will help you decide how hot, cold, wet, or windy it might be!

Date:

Astronomy

Sep. 17, 2013 Rise Set
Actual Time 7:11 AM CDT 7:27 PM CDT
Civil Twilight 6:47 AM CDT 7:50 PM CDT
Nautical Twilight 6:19 AM CDT 8:18 PM CDT
Astronomical Twilight 5:51 AM CDT 8:46 PM CDT
Moon 6:11 PM CDT (9/17) 5:13 AM CDT (9/17)
Length of Visible Light 13h 03m
Length of Day
12h 16m
Waxing Gibbous, 96% of the Moon is Illuminated
Sep 17
Waxing Gibbous
Sep 19
Full
Sep 26
Last Quarter
Oct 4
New
Oct 11
First Quarter

Hourly Weather History & Observations

Time (CDT) Temp. Heat Index Dew Point Humidity Pressure Visibility Wind Dir Wind Speed Gust Speed Precip Events Conditions
12:23 AM 80.6 °F 86.2 °F 75.2 °F 84% 29.99 in 9.0 mi NE 5.8 mph - N/A   Mostly Cloudy
12:33 AM 78.8 °F - 75.2 °F 89% 29.99 in 9.0 mi NE 5.8 mph - N/A   Scattered Clouds
12:53 AM 79.0 °F - 75.9 °F 90% 29.99 in 9.0 mi NE 5.8 mph - N/A   Partly Cloudy
1:53 AM 78.1 °F - 75.9 °F 93% 29.99 in 8.0 mi Calm Calm - N/A   Clear
2:53 AM 79.0 °F - 75.9 °F 90% 29.97 in 8.0 mi ENE 4.6 mph - N/A   Scattered Clouds
3:53 AM 77.0 °F - 73.9 °F 90% 29.96 in 6.0 mi North 4.6 mph - N/A   Clear
4:53 AM 77.0 °F - 73.9 °F 90% 29.95 in 6.0 mi NNE 5.8 mph - N/A   Clear
5:53 AM 75.9 °F - 73.9 °F 94% 29.96 in 6.0 mi NNE 6.9 mph - N/A   Clear
7:53 AM 77.0 °F - 75.0 °F 94% 29.99 in 7.0 mi NE 5.8 mph - N/A   Clear
8:53 AM 81.0 °F 87.3 °F 75.9 °F 85% 30.01 in 10.0 mi ENE 8.1 mph - N/A   Clear
9:53 AM 84.9 °F 94.1 °F 75.9 °F 74% 30.01 in 10.0 mi East 9.2 mph - N/A   Partly Cloudy
10:53 AM 86.0 °F 96.0 °F 75.9 °F 72% 30.02 in 10.0 mi East 11.5 mph - N/A   Clear
11:53 AM 87.1 °F 94.5 °F 73.0 °F 63% 30.02 in 10.0 mi ESE 13.8 mph - N/A   Partly Cloudy
12:53 PM 88.0 °F 97.5 °F 75.0 °F 65% 30.01 in 10.0 mi ESE 15.0 mph 20.7 mph N/A   Partly Cloudy
1:53 PM 87.1 °F 95.4 °F 73.9 °F 65% 29.98 in 10.0 mi East 16.1 mph 20.7 mph N/A   Scattered Clouds
2:53 PM 87.1 °F 95.4 °F 73.9 °F 65% 29.96 in 10.0 mi East 18.4 mph 24.2 mph 0.00 in   Partly Cloudy
3:53 PM 88.0 °F 97.5 °F 75.0 °F 65% 29.95 in 10.0 mi East 12.7 mph 23.0 mph N/A   Partly Cloudy
4:53 PM 87.1 °F 96.3 °F 75.0 °F 67% 29.94 in 10.0 mi East 13.8 mph - N/A   Partly Cloudy
5:53 PM 86.0 °F 95.1 °F 75.0 °F 70% 29.93 in 10.0 mi East 15.0 mph - N/A   Partly Cloudy
6:53 PM 84.0 °F 91.2 °F 73.9 °F 72% 29.93 in 10.0 mi ESE 13.8 mph - N/A   Clear
7:53 PM 82.0 °F 89.4 °F 75.9 °F 82% 29.94 in 10.0 mi East 8.1 mph - N/A   Clear
8:53 PM 81.0 °F 86.7 °F 75.0 °F 82% 29.95 in 10.0 mi East 5.8 mph - N/A   Clear
9:53 PM 80.1 °F 85.1 °F 75.0 °F 85% 29.96 in 10.0 mi East 5.8 mph - N/A   Clear
10:53 PM 80.1 °F 85.1 °F 75.0 °F 85% 29.98 in 10.0 mi ESE 5.8 mph - N/A   Clear
11:53 PM 79.0 °F - 75.0 °F 88% 29.98 in 10.0 mi East 5.8 mph - N/A   Clear